When you browse on this site, cookies collect data to enhance your experience and personalize the content and advertising you see.
Visit our Privacy Policy to learn more. By continuing to use the site, you agree to this use of cookies and data.
  • In Germany
  • List of Countries
  • For 7 days
  • Water Temperature
  • Weather Map
  • Weather Widgets
  • user-avatar
    Login

    Hourly Weather Kandahar

    Today, 19 September, Thursday

    Time Temperature Precipitation Wind Pressure Humidity
    00:00 +21°C° 0 mm 1 mps 673 mmHg 12%
    01:00 +18°C° 0 mm 0 mps 673 mmHg 13%
    02:00 +18°C° 0 mm 0 mps 672 mmHg 14%
    03:00 +17°C° 0 mm 0 mps 672 mmHg 14%
    04:00 +17°C° 0 mm 0 mps 672 mmHg 15%
    05:00 +21°C° 0 mm 1 mps 673 mmHg 12%
    06:00 +24°C° 0 mm 1 mps 674 mmHg 10%
    07:00 +27°C° 0 mm 1 mps 676 mmHg 8%
    08:00 +29°C° 0 mm 1 mps 676 mmHg 7%
    09:00 +31°C° 0 mm 1 mps 676 mmHg 6%
    10:00 +33°C° 0 mm 1 mps 676 mmHg 5%
    11:00 +35°C° 0 mm 1 mps 676 mmHg 4%
    12:00 +37°C° 0 mm 2 mps 676 mmHg 4%
    13:00 +38°C° 0 mm 2 mps 675 mmHg 3%
    14:00 +39°C° 0 mm 3 mps 675 mmHg 3%
    15:00 +39°C° 0 mm 3 mps 675 mmHg 3%
    16:00 +39°C° 0 mm 3 mps 674 mmHg 3%
    17:00 +36°C° 0 mm 3 mps 674 mmHg 4%
    18:00 +31°C° 0 mm 3 mps 674 mmHg 4%
    19:00 +28°C° 0 mm 3 mps 673 mmHg 5%
    20:00 +26°C° 0 mm 2 mps 673 mmHg 6%
    21:00 +24°C° 0 mm 1 mps 672 mmHg 6%
    22:00 +22°C° 0 mm 1 mps 672 mmHg 7%
    23:00 +22°C° 0 mm 1 mps 672 mmHg 7%

    Tomorrow, 20 September, Friday

    Time Temperature Precipitation Wind Pressure Humidity
    00:00 +19°C° 0 mm 0 mps 671 mmHg 7%
    01:00 +19°C° 0 mm 0 mps 671 mmHg 8%
    02:00 +20°C° 0 mm 1 mps 671 mmHg 8%
    03:00 +20°C° 0 mm 1 mps 671 mmHg 8%
    04:00 +19°C° 0 mm 1 mps 671 mmHg 9%
    05:00 +22°C° 0 mm 1 mps 672 mmHg 8%
    06:00 +25°C° 0 mm 2 mps 673 mmHg 7%
    07:00 +27°C° 0 mm 3 mps 674 mmHg 6%
    08:00 +30°C° 0 mm 2 mps 674 mmHg 5%
    09:00 +32°C° 0 mm 2 mps 675 mmHg 4%
    10:00 +35°C° 0 mm 2 mps 675 mmHg 4%
    11:00 +37°C° 0 mm 2 mps 675 mmHg 3%
    12:00 +38°C° 0 mm 2 mps 674 mmHg 3%
    13:00 +39°C° 0 mm 2 mps 674 mmHg 3%
    14:00 +39°C° 0 mm 2 mps 674 mmHg 3%
    15:00 +39°C° 0 mm 2 mps 673 mmHg 3%
    16:00 +39°C° 0 mm 2 mps 673 mmHg 3%
    17:00 +35°C° 0 mm 2 mps 672 mmHg 4%
    18:00 +30°C° 0 mm 1 mps 672 mmHg 6%
    19:00 +25°C° 0 mm 1 mps 671 mmHg 7%
    20:00 +25°C° 0 mm 1 mps 671 mmHg 7%
    21:00 +25°C° 0 mm 1 mps 671 mmHg 8%
    22:00 +24°C° 0 mm 1 mps 671 mmHg 8%
    23:00 +24°C° 0 mm 1 mps 671 mmHg 8%

    Day after tomorrow, 21 September, Saturday

    Time Temperature Precipitation Wind Pressure Humidity
    00:00 +23°C° 0 mm 1 mps 671 mmHg 9%
    01:00 +23°C° 0 mm 1 mps 670 mmHg 9%
    02:00 +22°C° 0 mm 1 mps 670 mmHg 9%
    03:00 +21°C° 0 mm 1 mps 670 mmHg 10%
    04:00 +19°C° 0 mm 0 mps 670 mmHg 10%
    05:00 +24°C° 0 mm 1 mps 671 mmHg 9%
    06:00 +26°C° 0 mm 1 mps 673 mmHg 7%
    07:00 +29°C° 0 mm 2 mps 674 mmHg 6%
    08:00 +31°C° 0 mm 2 mps 674 mmHg 6%
    09:00 +34°C° 0 mm 2 mps 674 mmHg 6%
    10:00 +36°C° 0 mm 2 mps 675 mmHg 6%
    11:00 +37°C° 0 mm 2 mps 674 mmHg 6%
    12:00 +38°C° 0 mm 2 mps 674 mmHg 6%
    13:00 +40°C° 0 mm 2 mps 674 mmHg 6%
    14:00 +40°C° 0 mm 2 mps 674 mmHg 5%
    15:00 +40°C° 0 mm 2 mps 673 mmHg 5%
    16:00 +40°C° 0 mm 2 mps 673 mmHg 5%
    17:00 +36°C° 0 mm 2 mps 672 mmHg 6%
    18:00 +31°C° 0 mm 1 mps 672 mmHg 7%
    19:00 +27°C° 0 mm 1 mps 671 mmHg 9%
    20:00 +26°C° 0 mm 1 mps 671 mmHg 9%
    21:00 +25°C° 0 mm 1 mps 671 mmHg 9%
    22:00 +24°C° 0 mm 1 mps 671 mmHg 10%
    23:00 +24°C° 0 mm 1 mps 671 mmHg 10%

    22 September, Sunday

    Time Temperature Precipitation Wind Pressure Humidity
    00:00 +24°C° 0 mm 1 mps 671 mmHg 10%
    01:00 +23°C° 0 mm 1 mps 671 mmHg 11%
    02:00 +23°C° 0 mm 1 mps 671 mmHg 12%
    03:00 +22°C° 0 mm 1 mps 671 mmHg 13%
    04:00 +21°C° 0 mm 1 mps 671 mmHg 15%
    05:00 +24°C° 0 mm 1 mps 672 mmHg 12%
    06:00 +27°C° 0 mm 1 mps 673 mmHg 10%
    07:00 +30°C° 0 mm 1 mps 674 mmHg 8%
    08:00 +32°C° 0 mm 1 mps 675 mmHg 7%
    09:00 +34°C° 0 mm 1 mps 675 mmHg 6%
    10:00 +36°C° 0 mm 1 mps 676 mmHg 5%
    11:00 +39°C° 0 mm 2 mps 675 mmHg 5%
    12:00 +40°C° 0 mm 2 mps 675 mmHg 4%
    13:00 +42°C° 0 mm 3 mps 675 mmHg 4%
    14:00 +42°C° 0 mm 4 mps 674 mmHg 4%
    15:00 +42°C° 0 mm 4 mps 674 mmHg 4%
    16:00 +41°C° 0 mm 5 mps 674 mmHg 4%
    17:00 +37°C° 0 mm 4 mps 673 mmHg 5%
    18:00 +34°C° 0 mm 4 mps 673 mmHg 6%
    19:00 +30°C° 0 mm 3 mps 673 mmHg 7%
    20:00 +29°C° 0 mm 2 mps 673 mmHg 8%
    21:00 +27°C° 0 mm 2 mps 673 mmHg 9%
    22:00 +25°C° 0 mm 1 mps 672 mmHg 10%
    23:00 +25°C° 0 mm 1 mps 672 mmHg 11%

    23 September, Monday

    Time Temperature Precipitation Wind Pressure Humidity
    00:00 +24°C° 0 mm 1 mps 672 mmHg 11%
    01:00 +24°C° 0 mm 1 mps 672 mmHg 11%
    02:00 +21°C° 0 mm 0 mps 672 mmHg 13%
    03:00 +20°C° 0 mm 0 mps 672 mmHg 14%
    04:00 +19°C° 0 mm 0 mps 672 mmHg 15%
    05:00 +24°C° 0 mm 1 mps 673 mmHg 12%
    06:00 +27°C° 0 mm 1 mps 674 mmHg 10%
    07:00 +30°C° 0 mm 1 mps 675 mmHg 8%
    08:00 +32°C° 0 mm 1 mps 676 mmHg 7%
    09:00 +34°C° 0 mm 1 mps 676 mmHg 6%
    10:00 +36°C° 0 mm 1 mps 677 mmHg 5%
    11:00 +38°C° 0 mm 2 mps 676 mmHg 5%
    12:00 +39°C° 0 mm 3 mps 676 mmHg 4%
    13:00 +42°C° 0 mm 4 mps 675 mmHg 4%
    14:00 +41°C° 0 mm 5 mps 675 mmHg 5%
    15:00 +41°C° 0 mm 6 mps 675 mmHg 5%
    16:00 +41°C° 0 mm 7 mps 674 mmHg 6%
    17:00 +38°C° 0 mm 6 mps 674 mmHg 8%
    18:00 +34°C° 0 mm 5 mps 674 mmHg 10%
    19:00 +30°C° 0 mm 4 mps 674 mmHg 11%
    20:00 +28°C° 0 mm 3 mps 674 mmHg 13%
    21:00 +26°C° 0 mm 2 mps 673 mmHg 15%
    22:00 +25°C° 0 mm 2 mps 673 mmHg 17%
    23:00 +24°C° 0 mm 1 mps 673 mmHg 18%

    24 September, Tuesday

    Time Temperature Precipitation Wind Pressure Humidity
    00:00 +23°C° 0 mm 1 mps 673 mmHg 19%
    01:00 +22°C° 0 mm 1 mps 672 mmHg 20%
    02:00 +19°C° 0 mm 0 mps 672 mmHg 21%
    03:00 +19°C° 0 mm 0 mps 672 mmHg 22%
    04:00 +18°C° 0 mm 0 mps 672 mmHg 23%
    05:00 +23°C° 0 mm 1 mps 673 mmHg 20%
    06:00 +25°C° 0 mm 1 mps 674 mmHg 17%
    07:00 +28°C° 0 mm 1 mps 675 mmHg 14%
    08:00 +30°C° 0 mm 1 mps 675 mmHg 13%
    09:00 +32°C° 0 mm 1 mps 676 mmHg 11%
    10:00 +34°C° 0 mm 1 mps 676 mmHg 9%
    11:00 +35°C° 0 mm 1 mps 676 mmHg 9%
    12:00 +37°C° 0 mm 1 mps 675 mmHg 8%
    13:00 +39°C° 0 mm 2 mps 675 mmHg 7%
    14:00 +39°C° 0 mm 2 mps 674 mmHg 7%
    15:00 +40°C° 0 mm 3 mps 674 mmHg 6%
    16:00 +40°C° 0 mm 3 mps 674 mmHg 6%
    17:00 +37°C° 0 mm 3 mps 673 mmHg 8%
    18:00 +34°C° 0 mm 3 mps 673 mmHg 9%
    19:00 +29°C° 0 mm 3 mps 673 mmHg 11%
    20:00 +28°C° 0 mm 2 mps 673 mmHg 13%
    21:00 +27°C° 0 mm 2 mps 673 mmHg 14%
    22:00 +25°C° 0 mm 2 mps 673 mmHg 16%
    23:00 +24°C° 0 mm 1 mps 672 mmHg 17%
    Show more